sat.trackr.live / text

‹ back to catalog

STARLINK-11637 [DTC]

NORAD 63190 · 2025-048H

PAYLOAD ACTIVE UNKNOWN

§ Identity

Operator
Country
US
Launch date
2025-03-13
Launch site
AFETR
Launch vehicle
Mass (kg)
RCS (m²)

Purposes: comms

External: N2YO · Heavens-Above · Gunter

§ Orbital elements

Epoch: 2026-09-20T22:25:15.906432Z

Period
91.67 min
Inclination
42.9996°
Eccentricity
0.0001635
Mean motion
15.70892401 rev/d
Perigee alt
355.2 km
Apogee alt
357.4 km
Semi-major
6,734.5 km
B*
1.4929e-3
RAAN
223.4226°
Arg perigee
246.7701°
Mean anomaly
113.2995°
Rev number
8,922

§ Raw data

STARLINK-11637 [DTC]1 63190U 25048H   26263.93421188  .00196124  00000+0  14929-2 0  99922 63190  42.9996 223.4226 0001635 246.7701 113.2995 15.70892401 89221

JSON: /api/v1/satellites/63190 · /tle

For live sub-satellite position, see the globe view (requires WebGL).

§ Visibility from observer

Set your observer location to see the next 7 days of passes ≥ 10°. The values pass through the URL so the page stays shareable.

No JS? Fill the form by hand. The geolocation button needs JavaScript.